Вернуться в каталог

SATCOM 3 DEB

LostHEO
NORAD 29003·DEBRIS·🇺🇸 United States

Запущен Dec 7, 1979 с Cape Canaveral Space Force Station

Loading…

Ближайшие Пролёты (ближайшие 24 часа)

TLE

УстаревшееSource: Space-Track

Эпоха: Jul 21, 2026, 14:46 UTC

1 29003U 79101F   26202.61566950 -.00000111  00000-0  00000+0 0  9995
2 29003   9.3628  39.3577 4903279 195.8470   5.3679  1.83294761 87237

Отслеживайте SATCOM 3 DEB в реальном времени с AllMySat

Download on the App Store